Tracking 25710 objects as of 5-Jul-2022
HD Live streaming from Space Station
objects crossing your sky now

FENGYUN 1C DEB

Track FENGYUN 1C DEB now!
10-day predictions


NORAD ID: 31074
Int'l Code: 1999-025BFU
Perigee: 825.1 km
Apogee: 974.2 km
Inclination: 99.0 °
Period: 102.8 minutes
Semi major axis: 7270 km
RCS: 0.0165 m2 (small)
Launch date: May 10, 1999
Source: People's Republic of China (PRC)
Launch site: Taiyaun Space Center, China (TSC)

Note: This is SATELLITE DEBRIS
aabbcc
Your satellite tracking list
Your tracking list is empty




NASA's NSSDC Master Catalog

Two Line Element Set (TLE):
1 31074U 99025BFU 22185.71476937  .00001251  00000-0  83553-3 0  9998
2 31074  98.9923  96.3367 0102511 176.8276 183.3560 14.00368409779125
Source of the keplerian elements: AFSPC